Wind_Speed
25 25 27 30 31 31 28 26 25 21 16 14 12 10 11 12 13 12 10 7 11 16 18 17 18 16 8 2 3 7 8 5 2 7 14 15 12 10 11 12 10 9 7 5 6 6 7 7 7 8 8 9 10 11 13 14 15 15 15 15 16 16 15 13 13 13 11 9 8 9 11 12 13 13 14 15 15 14 14 12 11 12 12 11 11 12
26 26 29 31 30 27 26 25 24 22 19 17 15 13 12 12 12 11 8 5 10 16 20 16 17 18 10 3 5 6 6 4 2 1 6 9 8 9 12 10 8 8 8 8 8 7 7 5 5 6 7 7 9 10 11 12 13 13 13 14 15 15 14 12 12 12 9 6 4 4 6 9 10 11 13 14 15 16 16 13 12 12 13 13 13 13
26 29 30 28 28 27 26 25 25 24 22 21 18 15 14 12 12 10 6 3 8 12 17 17 18 16 11 9 10 9 7 6 6 5 3 5 6 7 8 8 9 10 11 11 10 9 6 3 4 5 5 6 8 10 10 10 11 12 12 13 13 12 10 9 9 9 7 4 2 4 6 8 11 12 14 15 17 18 18 16 15 14 15 16 15 15
24 27 29 26 24 25 26 27 27 26 25 24 21 18 16 12 10 8 5 3 7 9 10 16 17 13 11 12 11 8 7 7 7 7 5 5 6 5 6 10 12 13 14 13 12 11 6 1 3 4 5 6 8 9 9 10 11 11 11 11 9 7 6 5 5 5 4 1 3 5 6 9 12 14 15 15 17 18 19 19 18 17 17 17 17 16
24 21 22 24 21 20 24 27 29 28 27 27 25 22 18 12 9 9 7 7 9 6 6 13 15 12 13 11 6 4 7 7 6 7 6 5 6 8 11 14 15 16 16 14 13 12 8 3 3 4 5 6 7 9 9 10 12 12 13 10 6 4 4 2 2 3 2 4 5 4 5 5 8 10 12 12 14 15 17 18 19 20 19 18 18 17
25 18 16 21 19 18 22 25 28 29 27 27 27 25 19 13 9 7 6 9 8 2 6 13 11 6 10 9 6 6 8 7 3 4 7 5 5 9 13 14 15 17 17 15 15 14 11 8 6 6 8 9 10 10 9 10 12 15 15 11 7 5 6 5 5 6 6 6 4 3 3 3 5 7 8 8 10 12 15 17 19 20 20 19 19 19
24 18 15 18 18 17 20 22 25 26 24 25 27 24 17 13 10 7 6 7 5 1 5 11 9 3 5 9 6 6 8 8 5 2 4 5 4 7 10 10 11 14 16 17 16 15 14 12 9 9 10 11 12 11 9 9 11 13 13 12 11 10 8 8 7 8 9 7 6 5 5 6 8 10 11 12 12 13 15 17 20 21 20 20 19 19
22 19 16 17 17 16 18 21 23 24 24 24 24 18 13 11 9 7 9 8 5 1 2 5 7 4 3 7 6 5 7 8 7 4 3 4 4 4 6 8 10 14 17 18 18 17 16 14 12 11 11 13 14 13 11 10 10 11 11 11 12 12 9 8 9 9 10 9 8 9 9 9 10 12 14 16 16 16 16 17 19 20 19 19 19 19
19 20 17 15 14 14 18 21 20 22 24 22 17 12 9 9 9 9 11 8 4 3 3 5 7 5 2 6 5 4 6 8 9 7 6 5 4 5 7 10 13 16 18 18 19 19 18 16 13 12 13 15 15 14 13 12 10 11 11 11 11 12 11 11 11 12 12 12 12 13 13 13 12 13 15 17 18 18 18 18 18 19 19 19 19 19
14 17 15 12 12 13 17 16 15 20 21 18 14 11 9 8 10 11 9 5 2 3 3 6 10 6 2 6 5 2 5 5 6 7 7 5 4 4 6 9 13 17 19 20 20 20 19 16 14 13 14 15 17 18 17 13 9 10 11 12 11 12 13 15 16 16 15 16 16 16 16 16 15 15 15 17 18 19 19 19 19 18 18 19 19 19
14 13 12 12 11 11 12 11 12 16 17 16 14 13 13 12 12 10 6 5 3 3 5 9 13 10 3 3 4 3 3 2 3 5 6 5 5 5 5 6 11 17 19 21 21 20 19 17 16 15 15 19 23 23 18 11 8 10 12 13 14 14 14 16 19 21 20 20 20 19 19 19 19 18 17 17 17 18 18 18 18 18 19 19 20 20
17 16 15 14 12 11 11 11 13 15 16 16 14 15 15 11 9 6 4 7 3 2 8 11 14 13 7 4 5 5 6 4 1 2 4 4 4 3 3 5 10 15 18 20 20 19 19 18 17 17 20 23 23 18 14 12 12 13 14 14 15 17 16 17 21 22 24 24 23 22 22 22 22 21 20 18 17 17 18 17 18 19 20 20 20 20
19 20 17 16 16 15 13 13 14 17 18 19 18 20 15 4 3 4 2 4 3 3 9 12 12 9 6 8 9 6 6 6 5 3 2 3 3 2 4 5 9 12 15 16 16 17 17 18 18 20 23 24 20 16 17 17 17 18 18 17 17 18 18 18 23 25 26 27 27 26 25 24 23 22 20 19 18 18 19 19 20 20 20 21 21 21
16 17 19 19 18 18 17 15 16 18 19 21 22 21 14 4 4 2 2 1 1 5 10 13 10 6 6 11 10 7 6 5 6 5 3 4 4 4 5 5 7 9 10 12 13 14 15 17 18 20 23 23 22 22 22 20 21 22 20 18 18 18 18 19 26 28 28 31 31 28 26 23 20 18 18 18 18 19 19 20 21 21 22 22 22 22
12 11 17 21 17 16 19 16 14 18 21 22 24 20 15 10 5 2 3 3 4 6 10 10 7 6 11 13 12 10 7 6 7 7 5 5 5 6 6 7 7 8 9 11 13 14 15 16 18 20 22 23 24 25 25 23 23 22 20 18 19 20 20 21 27 30 31 35 33 27 23 18 12 14 18 19 18 18 16 18 20 21 22 22 21 22
12 10 13 19 16 14 15 13 13 21 23 23 24 20 17 15 9 5 4 6 7 5 5 5 4 8 13 14 14 12 7 7 8 8 7 6 6 6 7 7 7 8 8 10 12 13 14 16 18 20 22 23 24 26 26 24 22 20 19 19 21 23 24 25 29 32 34 35 28 20 19 14 11 16 19 16 15 16 15 15 17 20 20 20 20 23
9 10 12 15 16 15 12 11 16 21 20 20 21 19 16 14 12 9 5 5 6 4 4 7 10 13 14 11 13 12 8 8 8 9 10 7 6 6 7 7 7 7 8 9 11 13 15 16 18 20 22 23 24 24 23 22 19 18 19 20 22 25 27 30 32 33 34 33 24 18 16 14 15 16 15 12 11 14 16 16 15 17 20 21 21 23
8 10 13 13 14 16 13 10 16 20 18 18 18 19 17 12 12 12 5 2 3 3 4 7 14 20 15 9 12 13 10 11 12 12 11 8 7 7 7 7 8 8 8 10 11 14 16 17 18 20 21 22 22 21 20 19 18 18 20 22 24 25 28 33 34 34 34 33 27 22 18 17 18 15 11 9 10 14 16 15 14 16 20 21 21 22
10 9 11 13 12 14 15 14 17 22 21 16 15 19 18 11 10 11 6 2 3 2 1 3 11 18 14 12 16 15 14 16 16 14 12 10 8 7 7 7 7 8 9 11 13 15 16 17 17 17 18 18 18 18 17 16 16 18 19 20 21 22 26 30 32 33 33 31 27 24 21 21 20 15 11 11 13 16 17 15 15 17 20 22 22 22
13 9 7 10 12 11 15 19 21 23 23 17 14 19 18 11 10 13 10 6 5 3 1 2 3 9 12 14 17 15 17 19 16 14 12 10 7 5 5 6 8 8 10 12 14 14 13 13 13 13 14 14 15 15 15 14 15 15 15 16 16 17 20 24 25 28 30 27 23 21 20 22 22 18 17 17 17 18 18 16 16 17 20 21 21 23
16 14 8 6 9 9 12 19 22 21 23 22 17 17 18 13 11 11 10 9 7 3 4 3 1 5 13 16 16 15 19 20 18 14 10 7 6 5 6 7 8 9 10 11 10 9 9 9 10 11 11 13 14 14 14 13 14 14 14 15 14 14 15 18 20 23 25 23 22 20 20 23 24 23 23 23 20 19 19 18 18 18 20 22 22 23
19 17 14 8 5 3 7 17 24 21 21 24 21 19 20 17 13 9 6 9 9 4 5 6 2 5 15 18 16 15 19 19 17 13 8 6 6 6 6 7 9 10 11 10 9 8 8 10 11 11 11 12 14 15 15 14 14 15 16 16 16 15 14 14 15 17 19 20 21 21 22 25 25 24 25 23 18 19 19 18 19 20 21 23 23 25
20 17 17 12 4 1 3 12 22 22 22 24 22 21 21 19 17 12 5 9 12 6 5 6 3 5 13 17 17 17 19 16 13 11 9 8 7 6 6 8 9 9 10 10 11 11 12 13 14 13 13 13 14 16 16 16 16 16 17 17 17 17 16 14 13 14 15 18 20 22 24 27 26 24 24 21 18 20 20 19 20 22 21 21 22 25
20 17 16 11 5 5 6 8 15 18 18 19 19 20 20 19 19 16 10 11 14 11 8 6 3 5 12 16 19 20 19 15 13 13 10 8 7 7 8 10 11 10 10 11 14 15 16 17 17 17 16 16 15 16 17 17 17 17 18 19 19 19 18 17 17 17 16 18 20 22 24 26 26 25 22 20 20 21 21 20 21 22 20 19 22 26
17 16 16 9 5 5 7 5 9 13 13 13 14 17 18 17 18 17 14 12 12 13 13 8 4 9 15 16 19 20 19 18 17 15 11 8 8 7 8 11 12 12 13 14 16 18 18 19 18 17 16 16 16 16 16 17 18 19 20 21 21 21 20 20 20 21 20 20 21 23 24 25 25 25 23 20 21 21 21 22 22 22 21 21 25 28
14 13 16 12 6 6 6 4 7 12 11 10 11 12 12 12 14 15 15 14 12 13 15 12 10 17 20 19 20 20 19 20 18 15 11 9 8 8 10 12 12 12 14 16 17 16 16 17 16 15 14 14 14 14 15 16 17 18 19 20 21 22 22 22 23 23 22 23 23 25 26 26 26 26 24 21 22 22 22 23 23 22 23 25 27 28
12 10 14 16 12 9 9 10 12 13 12 11 11 10 10 10 11 13 15 15 15 15 15 13 14 20 24 23 23 23 22 21 18 16 12 8 7 9 11 13 13 13 15 18 16 14 14 14 14 13 13 13 13 13 14 14 15 15 15 16 18 20 22 24 25 26 26 26 27 28 29 29 27 27 25 22 22 23 23 24 23 22 22 25 29 30
11 10 9 11 11 8 9 14 16 14 14 14 13 12 11 11 11 12 12 12 14 15 13 13 16 19 22 24 25 26 24 20 16 14 11 8 9 11 12 13 13 11 14 16 15 13 13 14 13 13 12 13 13 12 12 12 12 12 12 13 15 17 19 21 24 27 28 30 30 30 31 31 30 29 26 22 22 22 22 23 24 22 22 25 30 30
10 10 9 8 11 11 10 12 12 12 14 15 14 11 10 9 9 9 9 10 14 14 11 15 20 20 22 24 24 23 22 18 15 13 12 12 13 13 13 14 12 10 12 14 15 14 13 13 13 13 12 12 12 12 12 12 12 12 12 13 15 15 16 18 21 24 26 30 32 31 31 31 31 30 26 23 23 21 20 22 22 22 24 27 31 30
10 11 10 9 11 13 11 10 8 7 12 14 13 11 9 7 6 7 8 11 14 11 8 13 20 22 21 22 22 22 21 19 17 15 15 14 13 12 12 12 10 10 12 14 15 14 13 13 13 12 12 12 12 12 12 12 13 12 13 13 13 14 14 15 16 19 23 26 29 30 30 29 29 29 27 25 24 22 21 22 22 24 26 29 31 30
10 13 14 12 11 12 9 8 7 5 7 10 11 11 9 7 7 7 8 11 13 10 9 13 19 21 21 21 23 24 21 17 13 13 14 15 13 12 10 9 9 11 12 13 14 14 12 12 12 11 11 12 12 12 11 11 12 13 13 13 12 13 12 11 12 14 17 19 22 25 28 27 28 28 26 25 25 24 24 23 24 27 28 30 31 30
10 13 17 14 11 12 10 7 7 6 5 6 9 11 11 11 11 9 9 11 12 10 12 17 19 19 19 21 22 22 19 16 12 12 14 16 14 12 10 9 9 10 9 8 9 10 9 9 10 10 11 11 11 11 10 11 12 13 13 13 12 12 12 10 11 12 14 15 17 20 23 25 27 27 25 25 25 26 26 25 25 28 29 31 33 31
11 14 17 14 10 13 13 11 11 9 5 6 9 11 11 11 12 11 11 13 12 11 13 17 18 18 18 19 21 21 19 16 13 13 14 15 12 10 9 8 9 10 8 5 5 6 6 7 9 10 10 10 10 10 10 11 11 12 12 12 12 12 11 10 11 12 13 13 15 17 19 21 23 24 23 24 25 27 28 27 27 28 30 32 33 32
12 15 17 15 12 14 15 13 10 5 3 5 7 8 8 9 10 11 13 14 13 13 15 16 17 18 19 19 19 19 17 14 14 15 15 13 10 7 7 7 8 10 9 7 6 6 6 7 8 9 10 10 10 10 10 10 10 10 11 11 12 12 10 9 11 12 12 13 15 14 15 18 19 20 22 24 26 27 28 28 28 28 31 33 32 30
12 16 18 16 14 15 17 13 6 2 5 8 8 7 8 8 9 10 12 14 14 15 17 17 17 18 18 17 17 16 15 13 14 14 11 9 7 6 7 7 8 10 10 8 7 7 7 7 6 7 8 8 8 8 8 8 9 10 10 11 11 10 10 8 9 10 11 14 17 14 9 12 15 18 21 21 23 25 27 28 27 28 33 34 30 28
12 15 17 16 13 14 16 12 5 4 9 11 9 9 10 10 9 9 10 13 15 17 17 17 17 17 16 15 13 13 13 13 12 10 8 8 8 7 8 9 10 11 9 7 6 6 6 7 6 7 8 8 7 7 7 8 10 10 10 10 9 8 9 8 8 11 12 13 16 14 7 6 9 16 21 18 17 22 25 26 28 31 33 32 30 30
12 14 17 15 11 12 14 11 6 6 10 13 13 12 12 11 10 10 11 12 13 14 15 14 13 13 13 12 10 9 9 10 11 9 8 8 9 10 10 11 13 12 9 6 7 8 8 9 8 7 7 8 9 8 8 10 11 10 10 10 9 7 7 7 8 10 12 12 13 12 7 8 9 13 19 17 16 20 23 27 31 32 30 28 29 29
12 12 15 13 10 13 16 11 5 4 8 15 18 15 13 12 10 10 10 11 11 12 12 12 10 9 9 8 7 7 8 9 11 10 9 9 11 11 11 12 11 9 8 7 8 8 10 11 11 8 7 8 9 8 8 10 11 10 9 8 8 8 8 9 10 10 11 11 12 11 9 8 10 15 18 19 20 22 25 29 31 31 27 26 27 28
12 11 13 12 10 15 19 12 5 6 8 15 19 17 14 12 11 9 8 9 12 12 11 12 10 8 8 8 6 6 7 8 10 10 10 11 11 10 11 10 8 7 9 10 8 8 10 10 11 10 9 8 8 7 8 10 11 10 9 8 8 9 11 13 12 10 10 11 10 9 9 7 13 17 14 14 17 20 24 27 27 28 28 28 28 28
12 11 12 12 11 15 18 12 8 9 10 14 19 18 15 13 12 9 6 8 13 13 12 12 11 9 8 7 6 6 6 8 11 13 13 11 10 9 9 9 8 8 10 10 11 11 11 11 12 13 11 9 8 8 9 10 11 12 11 9 9 9 11 13 12 10 10 10 8 4 4 6 12 14 12 11 14 17 20 22 23 24 27 29 29 28
14 13 13 14 13 15 17 13 8 9 11 14 18 19 18 15 13 10 7 8 10 12 12 12 10 8 7 7 7 9 9 9 12 14 12 10 7 8 9 9 9 10 10 10 12 13 12 12 14 15 13 10 8 8 10 11 11 13 12 10 9 9 10 12 12 11 10 12 9 3 2 3 7 11 10 11 15 18 18 19 22 22 24 26 28 28
14 13 13 14 14 14 17 13 7 7 11 14 16 19 19 15 12 12 13 10 8 8 10 9 8 7 7 7 9 11 12 12 12 12 10 8 7 9 11 11 10 10 11 12 12 12 11 12 13 15 16 14 11 10 10 11 11 12 12 10 8 8 9 12 13 12 11 12 11 6 2 4 8 13 14 15 17 17 17 19 22 21 22 26 27 27
14 12 13 15 15 13 15 12 6 7 11 13 15 19 20 16 12 13 14 11 8 6 6 7 8 9 8 8 9 10 10 12 12 11 9 10 10 10 11 12 12 12 12 13 13 12 13 13 14 16 17 16 13 11 10 10 11 12 12 10 9 8 7 9 12 13 12 11 9 5 2 6 14 20 22 23 25 23 21 23 25 23 25 29 29 27
14 12 12 16 16 13 14 14 10 9 11 13 15 18 19 17 13 11 10 10 8 7 6 8 9 9 9 9 9 8 8 9 9 10 10 12 12 12 12 12 13 14 14 14 15 16 16 17 17 17 17 16 15 13 12 11 12 12 11 11 10 9 7 8 10 12 11 8 6 2 0 5 12 16 17 20 22 21 20 23 26 27 26 27 28 27
14 13 12 15 16 14 14 15 13 10 10 13 15 16 17 16 12 10 11 10 8 8 10 11 10 9 9 9 7 6 7 7 8 9 11 12 13 14 14 15 15 15 16 15 15 15 15 15 16 16 17 16 15 13 13 14 13 10 10 11 12 11 10 9 10 13 12 9 7 5 4 6 8 11 12 13 13 12 11 13 18 21 21 19 20 21
14 14 13 13 15 14 12 12 12 11 12 14 15 14 15 16 13 11 11 9 8 11 13 13 10 9 9 9 7 5 6 7 6 6 7 8 9 10 11 11 11 12 13 13 13 13 13 13 14 15 15 15 13 12 13 14 12 10 10 12 13 12 11 10 10 12 13 11 11 10 9 9 9 9 10 10 9 8 7 6 8 11 11 11 12 14
13 14 14 14 15 14 12 12 13 14 16 16 15 15 16 16 14 14 13 12 11 12 13 12 10 8 9 10 9 7 6 7 7 6 5 4 5 5 5 5 5 5 6 7 8 9 10 11 12 13 13 13 12 11 12 13 12 11 11 12 13 14 13 11 11 12 13 12 11 12 12 12 13 12 12 11 11 10 10 10 11 11 13 14 15 16
13 13 14 16 15 14 16 18 18 19 19 18 17 17 17 17 17 16 15 13 11 10 11 11 10 9 9 11 10 8 6 6 7 6 5 4 3 3 3 2 2 3 3 3 4 5 6 8 10 11 11 11 11 11 12 12 13 14 14 14 14 15 15 14 13 13 14 13 12 12 13 14 14 14 14 15 16 15 14 15 15 15 16 16 16 15
13 13 14 16 17 18 21 22 22 23 23 21 19 18 17 17 17 16 15 13 11 10 10 10 10 9 9 9 10 9 7 6 6 5 4 4 3 3 2 1 1 1 1 1 2 3 4 6 8 10 10 10 10 10 11 12 13 14 16 16 17 17 16 16 15 15 16 15 13 13 13 15 16 17 17 18 18 17 16 16 16 15 15 15 13 13
11 12 14 17 19 22 26 25 25 26 25 22 18 17 17 16 15 15 14 14 13 11 9 8 7 6 6 6 7 8 7 5 4 4 3 3 3 4 3 2 2 2 2 2 2 3 4 4 6 8 8 8 8 9 10 11 12 13 14 14 16 17 17 16 16 17 17 16 15 15 14 14 15 16 18 19 19 18 17 17 16 16 15 14 13 12
7 9 12 14 17 22 26 25 22 22 23 22 19 17 17 15 12 12 12 12 13 13 11 10 9 8 8 8 8 8 7 5 5 5 5 5 5 5 5 5 5 4 5 5 5 5 5 4 5 6 7 7 7 8 9 9 10 11 11 11 12 15 16 16 16 18 18 17 17 16 16 15 15 14 15 16 17 17 17 17 16 16 16 15 13 13
Wind_Direction
197 202 206 207 205 204 204 205 210 212 218 226 229 226 226 240 242 233 243 272 305 278 237 235 240 215 186 171 274 281 286 306 299 237 234 234 241 242 231 226 246 275 269 270 287 292 307 322 335 327 316 304 295 297 301 305 312 316 318 321 328 338 338 335 339 333 315 295 273 254 246 241 240 235 221 206 198 205 224 239 241 238 236 233 238 240
204 208 210 210 209 208 210 212 215 216 222 227 230 232 230 242 247 239 257 314 325 275 240 240 239 214 192 208 253 276 285 286 302 253 221 219 229 230 223 228 256 268 264 275 272 264 278 292 320 329 330 328 316 309 307 310 316 317 321 326 331 338 338 336 341 338 318 292 265 230 231 238 237 225 213 207 204 211 226 238 243 243 238 237 240 239
209 215 213 212 214 214 215 217 219 220 222 226 231 237 236 239 253 261 260 309 339 286 249 238 229 209 196 217 236 250 258 262 263 256 220 203 216 227 232 246 262 261 261 266 257 255 268 288 315 312 319 331 320 309 313 318 318 320 325 332 338 340 336 337 345 335 311 282 212 176 187 208 222 219 211 210 211 215 224 234 244 247 243 241 241 241
212 217 214 215 218 218 218 218 220 223 223 226 231 237 240 240 259 272 241 257 332 308 250 221 211 200 206 224 230 240 258 263 250 236 220 217 224 238 251 250 251 248 245 253 258 258 262 319 342 318 317 319 308 303 310 317 319 322 326 334 343 341 331 338 344 324 304 188 140 147 166 191 210 216 215 217 220 221 225 233 242 247 248 246 242 241
215 216 215 215 215 215 216 218 221 225 226 229 231 234 242 245 256 275 275 298 320 309 233 206 203 208 217 224 220 245 287 288 255 223 205 197 207 231 247 247 246 241 238 250 261 256 255 279 316 308 299 289 287 291 299 308 310 312 316 326 346 352 339 313 231 247 216 144 137 134 141 169 195 204 208 214 219 221 227 233 239 245 249 247 243 239
216 210 205 204 205 207 211 215 218 223 227 231 233 234 240 245 250 270 291 304 311 302 192 196 198 215 217 215 223 251 284 303 297 222 210 202 188 211 231 238 243 245 244 249 256 256 255 260 272 284 284 278 276 278 290 300 299 301 305 310 315 319 313 286 234 212 191 171 171 176 172 195 217 218 216 222 226 229 234 238 242 246 247 246 242 234
215 203 189 188 194 201 208 212 214 219 225 230 234 234 236 241 240 250 269 282 294 37 148 185 187 164 197 207 225 258 282 300 323 299 230 234 217 202 209 219 233 245 251 251 253 258 255 252 259 268 272 274 272 276 286 289 290 296 301 304 302 295 286 275 250 215 199 192 199 217 229 235 238 237 236 241 246 247 247 245 244 243 242 242 239 231
211 195 184 183 189 199 208 209 208 211 219 226 229 225 223 227 222 233 249 258 275 250 168 198 190 151 174 216 234 265 283 294 309 318 306 297 287 258 229 227 229 232 241 249 253 258 256 252 256 262 265 268 268 273 279 276 277 288 299 305 298 284 268 257 246 223 209 208 212 225 238 244 243 238 234 235 238 241 243 244 242 239 238 237 232 226
203 192 187 188 194 204 205 203 202 206 216 218 212 208 211 215 218 234 245 257 285 255 235 230 202 174 190 223 233 261 265 286 302 304 309 311 304 287 263 251 237 225 226 237 246 251 252 252 257 264 265 266 270 273 273 272 275 280 287 290 281 272 262 253 249 236 222 219 219 223 230 235 240 240 237 235 234 235 235 237 239 237 235 233 228 222
194 188 187 198 211 208 199 199 201 204 211 205 195 209 219 216 228 238 249 253 244 229 211 184 187 188 221 215 207 227 249 288 314 306 306 308 301 291 275 256 235 222 221 229 239 244 247 250 255 263 264 267 270 264 257 256 265 277 279 278 273 269 262 254 251 245 236 228 223 223 225 227 233 238 242 241 240 239 238 238 238 237 236 234 229 221
195 195 208 222 219 205 200 208 209 206 211 206 203 218 217 215 227 233 232 196 174 220 197 169 182 197 217 201 176 154 155 75 360 308 302 303 297 287 274 245 222 219 223 231 239 243 247 251 254 259 261 261 259 254 252 254 262 274 276 276 275 273 265 252 245 244 243 235 226 223 225 226 230 236 240 243 242 241 241 241 240 237 236 235 228 220
213 219 229 228 216 210 219 229 225 220 219 217 219 218 210 211 216 210 179 166 154 231 190 176 188 201 203 168 148 143 145 142 154 299 298 292 291 271 241 217 210 214 221 228 233 236 239 242 244 248 251 256 260 264 276 278 270 268 266 266 268 269 266 244 229 235 243 241 231 225 226 226 230 234 238 243 243 240 239 239 239 235 234 233 227 220
230 231 229 222 221 226 236 242 236 229 224 223 222 211 201 180 169 201 195 162 174 194 180 185 193 199 194 161 153 165 177 182 189 186 234 251 247 216 183 181 194 204 213 219 224 225 227 230 231 237 246 258 272 279 276 270 270 271 264 260 259 262 263 238 217 223 237 242 237 229 225 223 225 229 234 242 247 244 240 237 234 229 229 230 225 221
234 233 228 224 227 230 233 242 238 224 216 213 209 201 192 142 97 212 259 106 196 194 180 189 193 174 159 156 158 182 188 183 193 190 189 210 214 208 197 190 191 198 205 210 215 217 221 223 225 231 241 253 263 266 266 266 270 271 264 259 258 259 259 234 214 217 228 237 238 233 229 226 226 234 240 243 249 249 249 250 242 230 224 223 219 218
230 233 226 222 230 228 225 238 232 205 195 196 201 206 208 195 159 183 213 176 182 185 174 184 197 168 151 150 157 170 167 161 182 199 208 213 218 222 225 227 220 217 220 218 220 224 226 227 229 234 242 250 257 262 266 268 268 268 265 259 253 251 248 230 215 216 225 236 240 241 244 242 240 247 244 241 247 251 256 265 261 246 232 222 215 214
225 239 218 211 224 223 218 232 214 190 186 191 199 209 213 204 192 197 204 181 172 162 149 154 160 154 146 145 154 159 163 170 176 200 219 222 229 237 243 248 247 246 248 245 242 243 243 241 241 243 248 254 258 263 267 271 273 273 270 261 250 243 239 230 222 220 229 240 247 255 263 260 247 246 246 244 250 257 260 264 263 254 239 224 216 216
207 228 207 201 217 218 214 222 208 196 191 191 196 204 207 206 207 203 182 162 154 130 145 136 122 136 141 147 164 168 184 202 204 218 229 237 248 262 276 281 287 288 283 274 266 262 260 258 254 251 253 255 259 263 268 273 275 275 274 268 257 247 238 234 229 228 237 246 254 263 263 251 241 244 254 260 260 263 263 263 261 251 236 224 218 220
208 225 217 211 216 212 211 211 205 206 203 195 197 200 195 194 208 206 185 121 111 115 170 154 143 152 152 155 170 174 188 213 230 235 242 258 267 282 298 301 304 299 287 275 265 262 261 259 258 257 258 259 261 265 268 273 277 279 277 272 265 255 245 240 233 231 238 244 252 262 259 248 243 237 245 259 257 258 262 266 264 250 237 228 221 221
222 236 228 220 218 208 209 208 198 201 207 208 205 199 193 189 198 200 194 142 133 152 188 138 154 167 172 167 165 176 199 215 230 239 246 259 267 285 294 291 288 277 267 261 255 254 254 254 256 257 259 263 265 266 268 276 284 286 282 274 267 260 254 251 243 236 237 239 244 254 253 252 253 247 245 253 250 249 254 261 260 248 237 229 226 224
219 231 229 216 219 212 207 207 198 194 199 205 206 202 202 206 198 196 201 182 162 182 170 94 158 185 196 182 167 181 209 215 223 232 242 257 269 282 277 268 270 266 261 257 252 254 255 255 259 259 261 263 264 266 269 277 285 289 285 274 270 271 265 261 253 242 239 237 236 241 244 251 258 258 255 253 252 249 249 253 250 242 235 228 225 225
216 222 226 200 207 214 205 205 206 202 199 200 205 209 207 204 193 191 204 194 174 168 148 138 255 197 197 194 181 194 216 218 220 224 234 252 260 266 261 252 256 261 262 261 258 259 263 265 265 264 266 265 263 265 269 276 283 287 285 279 283 293 289 278 264 247 241 242 242 241 243 247 252 254 254 250 248 248 249 249 243 234 230 225 219 217
216 217 222 202 176 195 197 202 209 213 209 205 210 217 210 202 191 176 193 203 196 201 169 167 205 174 185 191 185 204 226 223 218 223 227 239 252 260 252 238 246 255 257 258 257 260 266 270 270 269 269 268 267 268 271 277 282 284 285 287 291 298 301 296 275 250 244 251 254 252 250 248 250 255 258 253 247 246 248 247 239 229 228 227 215 206
216 217 226 225 224 284 208 202 207 211 213 212 215 218 211 207 203 190 191 201 195 203 176 157 138 150 178 186 180 201 231 229 221 229 227 225 238 245 236 228 235 243 246 248 248 254 264 268 270 272 271 269 268 267 269 272 275 276 277 283 290 293 294 292 281 263 251 250 252 252 251 251 256 262 264 261 253 246 244 242 234 225 229 233 214 197
210 216 225 221 214 229 224 214 211 211 216 218 217 217 213 211 209 206 217 213 192 184 165 140 102 146 174 189 189 203 227 229 225 231 224 216 222 225 228 230 232 239 247 254 254 257 263 264 265 268 272 273 271 268 268 268 271 273 275 280 285 287 287 284 281 277 266 257 255 255 256 257 262 267 269 267 255 243 238 238 231 222 225 225 205 191
200 211 214 190 125 180 209 220 209 202 208 212 208 214 219 217 213 211 217 213 192 182 175 160 149 164 177 198 203 209 225 228 227 230 219 209 217 224 233 236 240 246 253 260 260 258 257 256 260 266 272 275 274 273 274 273 275 275 276 278 280 280 281 280 278 276 272 268 266 266 267 265 265 268 267 260 251 241 233 231 227 221 220 213 199 190
194 206 208 195 152 160 185 193 186 179 182 189 189 201 211 209 210 210 207 203 193 187 186 179 166 167 179 202 210 211 223 226 225 230 225 214 217 230 242 247 251 255 261 268 267 259 252 251 255 263 271 276 278 278 279 279 281 281 280 279 277 275 275 274 273 272 269 267 266 266 268 267 266 267 262 249 244 240 231 227 226 220 214 207 197 187
184 191 203 209 210 206 202 192 184 183 187 182 173 177 183 180 189 199 201 203 197 187 187 192 188 181 186 202 209 210 220 224 222 226 228 216 220 240 249 255 260 263 267 269 264 254 248 249 253 260 270 279 282 281 281 281 284 286 284 281 277 274 272 270 268 267 264 263 264 264 266 266 264 263 259 250 245 238 226 222 223 216 207 200 189 181
173 166 178 203 204 197 194 183 177 182 188 181 170 167 168 165 172 186 196 202 194 186 189 199 199 196 197 205 210 211 220 226 223 227 229 213 218 240 253 260 265 265 259 253 246 241 243 247 254 262 271 278 279 279 284 288 290 292 290 286 282 277 274 272 269 266 263 261 260 260 261 262 261 261 260 255 249 238 226 222 219 208 200 195 185 180
176 155 153 179 166 144 151 163 165 175 180 177 174 170 170 168 168 177 187 187 184 191 207 202 194 197 204 208 208 210 217 221 215 218 223 218 223 238 253 264 270 268 254 241 234 235 243 251 258 264 269 272 274 278 286 293 297 301 300 295 289 283 279 277 273 269 264 260 258 257 257 257 258 259 257 251 246 239 228 223 216 200 193 192 186 182
179 157 157 177 159 138 139 146 147 171 176 171 169 168 171 178 172 165 170 175 179 191 212 199 191 197 205 206 202 204 213 221 222 225 228 226 230 241 254 263 268 268 254 239 235 240 246 251 254 260 266 271 275 281 290 296 299 303 305 303 299 295 291 287 281 276 269 263 259 256 254 254 256 255 249 242 240 235 230 227 216 200 194 193 188 183
181 166 163 174 160 137 133 139 137 161 179 173 174 173 168 171 174 170 172 180 188 196 198 192 193 199 202 201 201 206 214 223 229 236 239 237 237 245 257 258 251 254 252 242 240 244 246 248 251 260 270 274 280 287 292 298 302 306 309 311 310 307 305 300 295 289 279 270 264 260 256 253 254 252 246 240 235 231 232 229 212 199 197 194 188 185
189 172 166 173 165 140 136 150 144 146 169 174 176 175 170 169 173 177 181 187 196 204 197 193 197 201 201 202 203 209 217 220 218 226 236 241 247 258 267 258 245 249 252 246 244 245 249 258 264 271 277 281 287 293 296 300 304 306 309 314 318 321 318 306 298 297 286 274 269 265 259 253 252 251 247 241 233 228 230 224 208 202 201 195 188 187
198 187 176 179 174 150 149 156 144 139 157 166 163 166 169 175 180 183 186 191 199 209 204 200 202 204 206 206 205 207 214 214 212 220 231 240 250 262 265 256 252 254 249 240 248 255 261 269 274 281 288 291 293 296 297 299 301 303 309 316 322 326 328 315 304 301 292 288 286 275 261 252 249 249 246 239 229 225 226 220 210 206 201 194 189 189
195 196 188 189 183 163 160 160 148 145 188 179 168 169 171 181 191 191 190 192 198 205 205 205 205 206 210 213 211 211 210 206 208 220 234 244 248 250 254 251 250 253 249 237 233 248 270 281 286 293 297 299 297 294 295 299 303 309 316 325 327 327 327 317 307 308 309 310 311 295 264 250 248 248 247 239 228 225 223 217 211 205 196 191 189 190
179 182 186 192 190 176 167 163 155 206 207 187 186 190 185 189 200 201 194 189 190 195 200 207 210 210 216 222 217 209 204 203 214 227 239 246 240 236 246 250 245 247 252 248 238 248 273 286 298 312 312 308 304 299 302 310 319 323 325 331 335 333 329 316 303 315 325 322 323 321 286 255 251 249 249 243 231 224 218 212 206 197 191 190 189 190
171 174 181 182 179 176 170 164 170 193 185 188 200 202 196 193 195 196 189 181 184 192 199 209 216 219 224 227 218 208 206 209 220 232 235 229 228 231 237 245 248 245 247 258 262 259 262 270 292 322 330 328 322 319 324 330 332 332 332 335 341 338 333 327 312 313 319 320 328 334 311 263 256 246 243 242 232 219 211 205 198 189 186 189 190 193
173 177 179 171 166 173 168 156 156 168 174 187 196 197 200 200 193 189 184 177 183 193 197 205 215 222 226 226 219 217 217 211 213 227 231 215 214 223 232 245 252 242 230 244 261 254 253 269 288 312 333 331 323 326 340 342 337 337 337 339 344 343 333 328 319 314 313 318 332 336 307 282 270 233 214 209 212 207 197 193 193 189 187 189 192 196
182 187 187 181 177 178 166 146 132 162 187 198 201 202 206 207 201 197 194 189 191 199 203 204 209 214 216 215 213 217 219 211 212 225 228 207 204 222 240 248 246 227 215 233 252 253 261 276 285 292 311 324 321 326 345 347 342 343 347 350 354 353 343 335 331 326 321 321 329 336 326 288 242 204 185 184 195 196 190 189 191 190 189 191 194 197
195 199 199 197 192 183 174 165 174 200 200 201 204 207 207 204 203 201 203 210 211 211 216 217 218 224 222 217 224 234 232 223 218 223 220 207 211 235 246 237 220 210 224 239 247 255 264 269 272 278 289 304 312 323 339 343 342 342 344 352 359 355 346 341 335 326 320 321 323 332 334 285 227 212 206 208 209 204 200 200 199 193 189 192 198 201
206 208 207 206 202 192 186 185 197 209 208 203 204 206 204 205 206 198 199 224 222 219 228 230 225 229 232 228 231 230 220 213 213 217 216 210 218 237 235 218 209 214 228 236 239 250 265 269 269 274 280 286 297 317 330 333 335 335 331 334 347 349 344 341 337 326 321 328 333 329 311 281 258 247 236 223 221 218 212 212 212 202 193 198 206 207
210 213 215 211 207 202 198 196 202 215 219 213 206 204 204 205 206 202 206 228 228 226 233 232 220 221 232 228 216 206 197 201 211 212 209 209 220 228 221 217 219 216 219 232 239 246 258 267 272 281 288 288 292 312 324 324 327 332 329 325 333 345 350 351 348 340 332 335 338 329 197 240 272 262 242 221 221 221 214 211 210 200 194 201 207 204
208 208 210 206 204 206 203 199 202 219 224 219 207 203 203 202 206 214 220 229 236 235 236 227 205 205 218 210 200 198 194 198 207 208 206 217 230 226 220 223 225 219 221 233 239 239 245 255 267 281 290 293 296 303 310 314 321 328 329 325 326 336 351 358 350 337 327 328 330 322 239 185 183 188 189 190 196 199 199 204 204 198 195 197 193 191
208 202 195 194 196 196 191 187 195 222 222 216 204 199 199 200 211 225 228 233 238 231 225 210 190 188 197 199 199 204 201 198 202 204 214 230 234 228 225 227 228 227 230 235 240 244 249 254 261 271 279 286 290 289 292 303 315 319 321 322 326 329 342 354 347 332 318 314 319 325 281 198 176 168 163 163 166 170 178 193 198 196 196 196 194 198
209 203 193 193 195 192 187 189 204 221 217 207 199 198 199 201 213 224 224 230 237 219 193 187 185 186 197 203 207 215 218 216 217 218 224 229 228 229 232 231 229 230 232 236 241 246 251 254 258 266 275 280 281 280 284 296 306 310 313 320 328 332 334 342 344 336 320 298 288 310 196 181 178 175 175 177 179 183 190 200 203 201 201 206 212 218
210 208 203 201 201 200 198 201 208 213 205 194 189 190 195 199 206 208 204 210 216 197 179 177 179 183 186 186 190 204 212 219 227 229 229 227 224 226 230 231 231 231 232 233 235 238 242 248 254 263 270 271 269 272 278 286 292 300 311 319 326 331 331 331 333 330 319 293 262 239 193 169 170 176 184 193 200 205 209 214 213 209 209 215 220 225
211 209 207 203 201 199 195 194 196 188 178 175 174 177 187 196 196 186 177 176 175 171 166 160 157 164 172 165 156 163 179 183 189 199 208 213 215 219 223 227 231 233 235 237 237 237 241 248 252 255 254 250 250 261 276 284 291 300 306 306 306 310 315 317 316 311 304 288 264 240 208 183 178 179 180 188 200 205 208 215 215 212 216 219 219 223
207 209 204 195 192 188 171 163 168 168 164 166 170 172 177 179 170 154 143 138 141 147 147 141 140 154 165 157 141 137 151 158 154 156 166 179 192 198 203 211 222 232 242 249 251 251 253 254 255 254 250 246 246 258 272 281 287 292 292 288 286 288 291 295 295 289 280 271 256 237 212 189 183 185 189 194 200 204 208 213 214 215 218 220 218 214
194 199 195 186 183 176 159 152 155 156 156 157 160 160 159 154 146 138 133 132 131 133 134 136 140 144 144 138 129 122 126 134 133 132 136 143 152 161 162 170 189 207 224 248 265 272 269 266 264 261 259 259 258 260 267 273 276 278 278 278 281 283 282 282 283 276 265 253 240 226 215 200 191 195 203 204 199 198 201 204 206 208 209 210 206 197
179 179 182 180 175 164 154 153 154 153 151 151 151 150 149 146 144 143 141 140 140 143 147 150 150 146 137 132 128 119 111 116 122 122 125 129 120 105 100 132 204 210 217 234 264 283 285 283 279 272 269 270 267 264 267 272 273 273 272 271 273 275 275 274 273 270 264 257 250 244 234 218 203 199 204 204 199 197 197 198 199 201 201 200 195 188
164 168 176 183 180 166 157 156 158 156 152 149 151 152 148 146 150 152 150 149 149 150 151 152 148 139 126 116 111 101 89 79 74 64 55 54 56 52 38 11 346 334 326 315 307 301 297 296 295 290 287 286 281 274 273 273 274 276 274 270 267 268 269 269 264 261 261 260 260 262 259 246 226 211 203 199 196 196 197 198 199 201 204 205 204 200
158 171 181 192 187 169 158 155 156 158 155 150 151 153 148 146 152 155 149 147 145 138 131 123 115 108 102 95 90 84 75 61 47 38 30 25 23 15 3 355 351 347 341 333 323 314 309 308 308 305 302 298 291 285 281 275 272 273 275 274 270 267 268 270 264 259 258 260 261 261 260 257 252 243 229 215 202 194 195 200 204 206 208 213 217 219
Height
3083 3084 3085 3086 3089 3092 3094 3096 3098 3101 3102 3104 3105 3105 3106 3106 3107 3108 3110 3111 3111 3109 3108 3110 3112 3113 3114 3116 3118 3118 3119 3118 3117 3118 3120 3122 3124 3125 3127 3128 3128 3129 3129 3130 3131 3132 3133 3134 3135 3135 3135 3136 3137 3138 3138 3138 3139 3138 3137 3137 3137 3137 3136 3136 3135 3134 3133 3132 3131 3131 3132 3133 3134 3135 3136 3137 3139 3141 3142 3142 3143 3143 3144 3144 3145 3145
3082 3082 3083 3087 3090 3093 3095 3096 3098 3100 3101 3103 3104 3104 3105 3106 3106 3108 3110 3111 3111 3109 3107 3109 3111 3112 3114 3116 3118 3118 3118 3118 3118 3118 3119 3121 3123 3125 3126 3127 3128 3128 3128 3129 3129 3131 3132 3133 3134 3135 3135 3135 3136 3136 3137 3137 3137 3137 3136 3136 3136 3136 3135 3135 3134 3134 3133 3132 3130 3130 3131 3132 3133 3134 3135 3136 3138 3139 3140 3141 3141 3142 3142 3143 3144 3143
3079 3080 3083 3088 3090 3092 3094 3095 3097 3098 3100 3101 3102 3103 3104 3105 3106 3107 3109 3110 3110 3109 3107 3108 3110 3112 3114 3116 3117 3117 3117 3117 3118 3119 3120 3121 3123 3124 3126 3126 3126 3126 3126 3127 3128 3130 3132 3133 3134 3134 3134 3135 3135 3135 3135 3136 3136 3135 3135 3135 3134 3134 3134 3134 3133 3133 3132 3131 3130 3130 3130 3131 3132 3133 3134 3135 3136 3137 3138 3139 3140 3140 3141 3142 3142 3142
3078 3080 3084 3088 3089 3090 3092 3094 3095 3097 3098 3100 3101 3102 3103 3105 3107 3107 3108 3109 3109 3108 3107 3107 3109 3111 3114 3115 3116 3116 3116 3116 3117 3118 3119 3121 3122 3123 3124 3125 3125 3125 3125 3126 3127 3129 3131 3132 3133 3133 3134 3134 3134 3134 3134 3135 3134 3133 3133 3133 3133 3133 3133 3132 3132 3132 3131 3131 3130 3130 3130 3130 3131 3132 3133 3134 3135 3136 3137 3138 3139 3139 3140 3141 3141 3141
3078 3081 3084 3086 3087 3089 3090 3092 3093 3095 3096 3098 3099 3100 3103 3105 3107 3107 3107 3108 3108 3108 3107 3107 3109 3111 3113 3114 3114 3113 3114 3114 3115 3116 3118 3119 3120 3122 3122 3123 3123 3124 3124 3125 3127 3129 3131 3132 3132 3133 3133 3133 3133 3132 3133 3133 3133 3132 3131 3131 3131 3132 3132 3131 3131 3131 3131 3131 3130 3130 3130 3131 3132 3132 3133 3134 3134 3135 3136 3137 3138 3138 3139 3139 3140 3140
3078 3081 3082 3083 3085 3087 3088 3090 3091 3093 3095 3096 3097 3099 3102 3105 3106 3107 3107 3108 3108 3107 3107 3107 3110 3111 3111 3111 3111 3111 3112 3113 3113 3114 3116 3117 3118 3119 3120 3121 3122 3123 3124 3125 3127 3129 3130 3131 3131 3132 3132 3132 3131 3131 3132 3132 3132 3131 3131 3130 3131 3131 3131 3130 3130 3129 3130 3130 3131 3131 3131 3132 3132 3133 3133 3134 3134 3135 3135 3136 3137 3137 3137 3138 3138 3138
3076 3079 3080 3082 3084 3085 3086 3088 3089 3092 3094 3094 3095 3099 3102 3104 3105 3106 3107 3108 3108 3107 3107 3108 3110 3110 3109 3109 3110 3110 3111 3111 3112 3113 3115 3116 3117 3118 3118 3119 3121 3122 3123 3125 3126 3128 3129 3129 3130 3130 3130 3130 3129 3130 3130 3131 3130 3130 3129 3129 3129 3130 3129 3129 3128 3128 3128 3129 3130 3131 3131 3132 3132 3133 3133 3133 3133 3134 3134 3134 3135 3135 3135 3136 3137 3136
3074 3078 3079 3080 3082 3083 3084 3085 3088 3090 3092 3093 3095 3099 3102 3103 3104 3105 3106 3107 3107 3107 3107 3108 3109 3109 3108 3109 3109 3110 3110 3110 3111 3112 3114 3115 3116 3116 3116 3117 3119 3121 3122 3124 3125 3127 3127 3128 3128 3128 3129 3128 3127 3128 3128 3128 3127 3127 3128 3128 3128 3128 3128 3128 3127 3127 3126 3127 3128 3129 3130 3131 3131 3131 3131 3132 3132 3132 3132 3132 3132 3132 3133 3134 3135 3135
3073 3077 3078 3080 3081 3082 3082 3084 3087 3090 3091 3092 3095 3099 3101 3102 3103 3104 3105 3106 3106 3107 3107 3107 3107 3107 3108 3108 3108 3109 3109 3110 3110 3111 3113 3113 3114 3115 3115 3116 3117 3119 3120 3122 3123 3124 3125 3126 3127 3127 3127 3126 3125 3125 3125 3124 3125 3125 3125 3125 3125 3126 3127 3127 3127 3126 3125 3124 3125 3126 3127 3128 3129 3129 3129 3130 3130 3130 3130 3130 3131 3131 3132 3133 3134 3134
3074 3076 3078 3080 3081 3081 3082 3085 3088 3089 3090 3093 3095 3097 3099 3101 3102 3103 3104 3105 3105 3106 3106 3106 3106 3106 3107 3107 3108 3108 3109 3109 3110 3110 3111 3112 3113 3114 3114 3115 3116 3117 3119 3120 3121 3122 3124 3125 3126 3126 3125 3124 3123 3121 3119 3119 3121 3122 3122 3122 3122 3123 3125 3126 3126 3125 3124 3122 3122 3122 3124 3125 3126 3127 3127 3128 3128 3128 3128 3129 3129 3130 3131 3131 3132 3133
3073 3075 3077 3078 3079 3080 3083 3085 3087 3089 3090 3092 3094 3095 3098 3100 3101 3102 3103 3103 3105 3106 3105 3105 3105 3105 3106 3107 3108 3109 3109 3109 3109 3110 3110 3111 3112 3113 3114 3115 3115 3117 3118 3119 3120 3121 3123 3124 3124 3124 3124 3121 3117 3115 3114 3115 3118 3120 3120 3120 3121 3121 3122 3123 3124 3124 3123 3121 3120 3120 3121 3122 3123 3124 3125 3125 3126 3126 3126 3127 3128 3128 3129 3130 3131 3131
3072 3073 3075 3076 3078 3079 3081 3083 3086 3087 3089 3091 3093 3094 3096 3098 3099 3101 3101 3102 3105 3105 3104 3103 3104 3104 3105 3107 3108 3108 3109 3110 3110 3111 3111 3111 3112 3112 3113 3114 3115 3115 3116 3117 3118 3120 3121 3121 3122 3122 3119 3115 3113 3114 3116 3116 3117 3118 3118 3118 3119 3119 3119 3119 3120 3122 3123 3121 3119 3118 3118 3119 3120 3121 3122 3123 3124 3124 3124 3124 3125 3126 3127 3128 3129 3130
3070 3071 3074 3075 3076 3078 3079 3081 3083 3084 3086 3089 3091 3092 3094 3096 3098 3100 3101 3101 3103 3103 3102 3103 3103 3104 3105 3106 3107 3108 3109 3109 3110 3111 3112 3112 3112 3112 3113 3114 3115 3115 3116 3117 3117 3118 3119 3119 3120 3119 3116 3113 3113 3115 3116 3116 3117 3116 3116 3116 3116 3116 3116 3115 3116 3118 3120 3120 3118 3115 3114 3115 3115 3117 3119 3121 3122 3123 3123 3122 3123 3124 3125 3126 3127 3128
3069 3071 3072 3074 3075 3076 3077 3079 3080 3081 3083 3086 3088 3089 3091 3094 3098 3101 3102 3102 3102 3101 3101 3102 3102 3103 3104 3106 3107 3108 3109 3110 3111 3112 3113 3113 3113 3112 3113 3114 3115 3115 3116 3117 3117 3117 3118 3118 3118 3117 3115 3114 3113 3113 3113 3115 3116 3115 3114 3114 3114 3114 3114 3113 3113 3113 3115 3115 3113 3112 3112 3112 3114 3117 3119 3120 3120 3121 3122 3122 3122 3122 3123 3123 3124 3127
3069 3070 3070 3072 3074 3075 3076 3077 3079 3081 3082 3084 3087 3088 3089 3091 3094 3098 3099 3099 3099 3099 3100 3101 3101 3102 3103 3105 3107 3108 3109 3110 3111 3112 3114 3114 3113 3113 3113 3114 3115 3115 3116 3116 3116 3116 3116 3116 3116 3115 3114 3113 3112 3110 3110 3111 3113 3112 3112 3112 3112 3112 3111 3111 3110 3110 3110 3108 3108 3111 3113 3114 3116 3117 3117 3116 3118 3120 3121 3121 3122 3122 3122 3122 3123 3124
3068 3068 3069 3071 3073 3074 3075 3076 3078 3080 3082 3083 3086 3087 3088 3088 3091 3094 3095 3095 3096 3098 3100 3101 3101 3102 3103 3105 3106 3108 3108 3109 3110 3112 3113 3114 3113 3113 3113 3113 3114 3114 3115 3115 3115 3114 3114 3114 3114 3113 3112 3111 3110 3109 3108 3108 3109 3110 3109 3108 3108 3108 3108 3108 3107 3107 3106 3104 3108 3114 3114 3113 3114 3114 3114 3114 3116 3118 3119 3119 3120 3120 3121 3122 3122 3123
3066 3067 3068 3070 3072 3073 3075 3076 3078 3079 3080 3082 3083 3085 3086 3088 3090 3091 3092 3093 3094 3096 3100 3101 3101 3103 3104 3105 3106 3107 3107 3108 3109 3111 3112 3112 3112 3112 3112 3112 3112 3113 3113 3113 3113 3113 3112 3111 3111 3110 3110 3109 3108 3107 3106 3106 3107 3107 3106 3105 3105 3105 3105 3105 3105 3106 3104 3104 3109 3113 3113 3112 3111 3112 3114 3115 3116 3116 3116 3117 3118 3119 3119 3120 3121 3123
3065 3066 3067 3069 3071 3072 3074 3075 3077 3078 3079 3080 3081 3083 3085 3087 3089 3089 3090 3092 3093 3095 3099 3100 3100 3101 3102 3103 3104 3105 3106 3107 3108 3109 3110 3111 3111 3111 3111 3111 3111 3112 3112 3112 3111 3111 3110 3110 3109 3109 3108 3107 3106 3105 3105 3105 3105 3105 3103 3102 3102 3102 3101 3100 3102 3104 3103 3104 3108 3110 3111 3109 3108 3111 3114 3114 3114 3113 3114 3115 3116 3117 3118 3118 3119 3121
3065 3066 3066 3068 3069 3071 3072 3074 3075 3077 3078 3079 3080 3082 3083 3085 3086 3087 3088 3090 3092 3095 3098 3099 3100 3100 3100 3100 3101 3103 3104 3105 3107 3108 3109 3109 3110 3110 3110 3110 3110 3110 3110 3109 3109 3109 3108 3108 3108 3107 3107 3106 3105 3105 3105 3105 3104 3104 3102 3101 3099 3098 3097 3097 3099 3100 3099 3100 3105 3107 3108 3107 3105 3107 3111 3112 3111 3111 3111 3113 3114 3115 3116 3117 3118 3119
3064 3066 3066 3067 3068 3069 3070 3072 3073 3074 3076 3078 3080 3080 3081 3083 3084 3085 3086 3086 3089 3093 3096 3098 3099 3099 3098 3099 3100 3102 3103 3104 3106 3107 3108 3108 3109 3109 3109 3109 3109 3108 3108 3108 3107 3107 3107 3107 3107 3106 3106 3105 3104 3103 3104 3104 3103 3103 3101 3100 3099 3097 3096 3095 3096 3097 3095 3096 3101 3103 3105 3104 3103 3104 3107 3108 3108 3108 3109 3110 3111 3112 3113 3114 3116 3118
3064 3065 3066 3066 3067 3068 3069 3070 3072 3073 3074 3076 3077 3078 3080 3082 3082 3083 3085 3085 3086 3090 3093 3096 3098 3097 3097 3099 3100 3101 3102 3103 3104 3106 3107 3107 3107 3108 3108 3108 3107 3107 3107 3107 3106 3106 3106 3106 3106 3105 3105 3104 3103 3102 3103 3103 3102 3102 3100 3099 3098 3097 3096 3094 3094 3095 3094 3096 3099 3101 3102 3102 3102 3102 3102 3103 3104 3106 3106 3107 3109 3110 3111 3112 3114 3116
3062 3064 3065 3066 3066 3067 3067 3068 3071 3072 3073 3074 3075 3076 3078 3080 3081 3082 3083 3084 3085 3087 3089 3092 3093 3095 3096 3098 3100 3101 3100 3101 3103 3104 3105 3106 3106 3106 3106 3106 3106 3106 3106 3106 3105 3105 3105 3105 3105 3105 3104 3103 3103 3102 3102 3102 3101 3101 3099 3099 3098 3097 3096 3095 3095 3095 3096 3097 3099 3100 3100 3100 3100 3099 3099 3100 3102 3103 3104 3105 3107 3108 3109 3110 3112 3114
3062 3063 3064 3066 3066 3067 3067 3068 3069 3071 3072 3073 3074 3075 3076 3078 3079 3080 3082 3083 3084 3086 3088 3088 3091 3094 3096 3097 3099 3099 3099 3100 3102 3103 3104 3105 3105 3105 3105 3105 3105 3105 3105 3104 3104 3104 3104 3104 3104 3104 3104 3103 3103 3102 3102 3101 3100 3099 3098 3098 3097 3096 3096 3095 3094 3094 3094 3095 3095 3096 3097 3097 3097 3096 3097 3100 3102 3102 3102 3104 3105 3107 3108 3109 3111 3113
3060 3062 3063 3065 3067 3067 3067 3068 3068 3069 3071 3072 3073 3074 3075 3076 3078 3079 3081 3082 3083 3085 3086 3088 3091 3095 3096 3096 3098 3098 3098 3099 3100 3101 3102 3103 3104 3104 3104 3104 3104 3104 3104 3103 3103 3103 3103 3103 3103 3103 3103 3103 3102 3102 3101 3100 3099 3098 3097 3097 3096 3095 3094 3093 3092 3091 3091 3091 3091 3092 3091 3091 3092 3093 3095 3099 3100 3099 3101 3102 3103 3105 3106 3108 3109 3111
3058 3060 3062 3064 3067 3068 3068 3068 3068 3068 3069 3070 3071 3073 3074 3075 3077 3079 3080 3081 3082 3084 3084 3086 3090 3093 3094 3095 3096 3096 3097 3098 3098 3100 3101 3102 3103 3103 3103 3103 3103 3104 3103 3103 3102 3102 3102 3102 3102 3102 3102 3102 3101 3101 3100 3099 3098 3097 3096 3095 3095 3094 3093 3092 3091 3090 3089 3089 3089 3089 3088 3088 3088 3090 3093 3096 3097 3098 3099 3100 3101 3103 3104 3106 3107 3109
3057 3059 3060 3062 3065 3067 3068 3068 3067 3067 3068 3069 3071 3072 3073 3075 3076 3077 3079 3080 3081 3082 3083 3084 3086 3089 3092 3093 3094 3095 3096 3096 3097 3099 3100 3101 3102 3102 3102 3102 3102 3103 3103 3102 3101 3101 3101 3101 3101 3100 3100 3100 3100 3100 3099 3098 3097 3096 3095 3094 3093 3092 3091 3090 3089 3088 3088 3087 3087 3086 3086 3086 3086 3087 3090 3093 3094 3095 3096 3098 3099 3101 3102 3104 3106 3108
3056 3058 3059 3061 3063 3064 3065 3066 3066 3067 3068 3070 3071 3072 3073 3074 3075 3076 3077 3078 3079 3081 3082 3083 3083 3086 3089 3090 3091 3093 3093 3094 3096 3097 3099 3100 3101 3101 3101 3101 3101 3102 3101 3100 3100 3099 3099 3099 3099 3099 3099 3099 3099 3098 3097 3097 3096 3095 3094 3092 3091 3090 3089 3088 3087 3087 3087 3086 3085 3085 3084 3084 3085 3085 3087 3090 3090 3091 3094 3096 3097 3099 3100 3101 3104 3107
3056 3057 3059 3060 3061 3063 3064 3065 3065 3066 3068 3069 3071 3072 3073 3074 3074 3075 3075 3076 3077 3079 3081 3082 3083 3084 3086 3088 3089 3090 3092 3093 3095 3096 3098 3099 3099 3100 3100 3100 3100 3100 3100 3099 3099 3099 3098 3098 3098 3098 3098 3098 3097 3097 3096 3096 3095 3094 3093 3091 3090 3089 3088 3086 3085 3084 3084 3084 3083 3083 3082 3082 3083 3083 3085 3088 3088 3089 3093 3095 3095 3097 3099 3100 3103 3105
3056 3057 3058 3059 3060 3062 3063 3064 3065 3066 3067 3068 3070 3071 3072 3073 3073 3074 3074 3075 3076 3077 3078 3080 3081 3083 3085 3086 3087 3090 3092 3093 3094 3096 3096 3097 3098 3098 3098 3098 3098 3098 3098 3098 3098 3098 3098 3098 3098 3097 3097 3097 3096 3096 3095 3094 3093 3092 3091 3090 3088 3087 3086 3085 3083 3082 3081 3080 3080 3079 3079 3080 3080 3081 3083 3086 3086 3088 3091 3094 3094 3095 3097 3099 3101 3103
3055 3057 3058 3059 3060 3061 3063 3064 3065 3066 3067 3067 3069 3070 3071 3071 3072 3073 3074 3074 3076 3077 3077 3078 3080 3082 3083 3085 3087 3090 3091 3092 3093 3094 3095 3095 3096 3097 3097 3097 3096 3096 3096 3096 3097 3098 3098 3098 3097 3097 3096 3096 3095 3095 3094 3093 3092 3091 3089 3088 3087 3086 3084 3083 3082 3080 3079 3078 3077 3076 3076 3077 3079 3079 3080 3082 3084 3086 3088 3090 3092 3093 3095 3097 3099 3101
3055 3057 3058 3059 3060 3062 3063 3064 3065 3066 3067 3067 3068 3069 3070 3071 3071 3072 3073 3074 3075 3076 3077 3078 3079 3081 3082 3084 3086 3088 3090 3091 3092 3093 3093 3094 3095 3096 3096 3096 3095 3095 3095 3095 3097 3098 3098 3097 3097 3096 3095 3095 3094 3094 3093 3091 3090 3089 3088 3086 3085 3084 3083 3081 3080 3078 3077 3076 3075 3073 3073 3075 3076 3076 3078 3080 3082 3084 3085 3087 3089 3091 3093 3095 3098 3100
3054 3056 3058 3059 3060 3062 3064 3065 3065 3066 3067 3067 3068 3068 3069 3070 3070 3071 3073 3074 3075 3076 3077 3078 3079 3080 3082 3083 3085 3087 3088 3089 3090 3091 3092 3093 3094 3095 3095 3095 3094 3094 3094 3095 3096 3097 3097 3097 3096 3095 3094 3094 3094 3093 3092 3090 3089 3088 3086 3085 3084 3082 3081 3080 3078 3077 3075 3073 3072 3071 3070 3072 3073 3073 3076 3078 3079 3081 3083 3085 3087 3089 3091 3094 3096 3098
3054 3056 3057 3059 3060 3062 3064 3064 3065 3066 3067 3067 3068 3068 3069 3070 3070 3071 3071 3073 3075 3076 3076 3077 3078 3079 3081 3082 3084 3085 3086 3088 3089 3090 3091 3091 3093 3094 3094 3094 3094 3093 3093 3094 3095 3095 3096 3096 3095 3094 3094 3093 3093 3092 3091 3090 3088 3087 3085 3084 3082 3081 3080 3078 3076 3075 3073 3072 3070 3069 3068 3069 3070 3071 3074 3075 3077 3078 3080 3082 3085 3086 3089 3092 3095 3097
3053 3055 3057 3059 3060 3062 3063 3064 3065 3066 3067 3067 3068 3069 3069 3069 3070 3070 3070 3072 3074 3075 3076 3077 3078 3079 3080 3081 3083 3084 3085 3087 3088 3089 3089 3090 3091 3092 3093 3093 3093 3093 3093 3093 3094 3094 3095 3094 3094 3094 3093 3093 3092 3091 3090 3088 3087 3086 3085 3083 3082 3080 3079 3077 3076 3074 3072 3071 3069 3067 3067 3067 3068 3069 3071 3072 3074 3076 3077 3080 3082 3085 3088 3091 3093 3096
3052 3054 3056 3057 3059 3061 3063 3065 3066 3067 3066 3066 3067 3068 3069 3069 3069 3070 3070 3071 3072 3074 3075 3077 3078 3078 3079 3081 3082 3083 3085 3086 3087 3088 3089 3089 3090 3090 3091 3092 3093 3093 3092 3093 3093 3093 3094 3094 3094 3093 3093 3092 3091 3090 3089 3087 3086 3085 3084 3083 3081 3080 3078 3076 3075 3073 3072 3070 3068 3066 3066 3066 3067 3068 3068 3069 3071 3073 3075 3078 3080 3083 3087 3089 3091 3094
3052 3053 3054 3056 3058 3060 3062 3064 3065 3065 3065 3066 3066 3067 3068 3068 3069 3069 3070 3071 3072 3073 3074 3075 3077 3078 3079 3080 3081 3083 3084 3085 3086 3087 3088 3088 3089 3090 3091 3092 3092 3092 3092 3092 3092 3092 3093 3093 3093 3093 3092 3092 3091 3089 3088 3087 3085 3084 3083 3082 3081 3079 3077 3076 3075 3073 3072 3070 3068 3067 3066 3066 3067 3067 3067 3068 3069 3071 3073 3076 3079 3082 3085 3087 3089 3093
3052 3052 3053 3055 3057 3059 3060 3062 3064 3064 3065 3065 3065 3065 3067 3068 3069 3069 3070 3070 3071 3072 3073 3075 3076 3077 3078 3079 3081 3082 3084 3085 3086 3086 3087 3088 3088 3090 3091 3091 3091 3091 3091 3091 3091 3092 3092 3092 3092 3092 3092 3091 3090 3089 3088 3086 3085 3084 3082 3082 3080 3079 3077 3076 3075 3073 3071 3070 3069 3068 3067 3067 3067 3067 3068 3068 3069 3071 3074 3076 3078 3081 3084 3086 3089 3091
3052 3052 3053 3054 3056 3057 3059 3061 3064 3065 3064 3063 3063 3064 3066 3067 3069 3069 3070 3070 3071 3072 3073 3074 3076 3077 3078 3079 3081 3082 3083 3084 3085 3086 3087 3088 3089 3089 3090 3090 3090 3090 3090 3090 3090 3091 3091 3091 3091 3091 3091 3090 3089 3088 3087 3086 3085 3083 3082 3081 3080 3079 3078 3076 3075 3073 3071 3070 3070 3069 3069 3069 3068 3068 3069 3070 3071 3072 3074 3076 3078 3080 3084 3087 3089 3091
3051 3052 3053 3054 3055 3056 3057 3059 3061 3061 3060 3061 3062 3063 3065 3067 3068 3069 3070 3069 3070 3071 3072 3073 3075 3076 3077 3079 3080 3081 3083 3084 3085 3086 3087 3087 3088 3089 3089 3089 3089 3089 3089 3090 3090 3090 3090 3090 3090 3090 3090 3090 3089 3088 3087 3086 3085 3084 3082 3081 3080 3079 3078 3077 3075 3074 3072 3071 3071 3070 3070 3070 3070 3070 3070 3071 3071 3072 3074 3076 3078 3080 3083 3086 3088 3090
3050 3051 3052 3053 3054 3055 3056 3057 3057 3058 3059 3060 3061 3063 3065 3066 3068 3069 3069 3068 3068 3070 3071 3072 3074 3075 3077 3078 3080 3081 3082 3083 3084 3085 3086 3087 3088 3088 3089 3089 3089 3089 3089 3089 3089 3089 3089 3089 3089 3089 3089 3089 3088 3087 3086 3085 3085 3084 3082 3081 3079 3078 3078 3077 3075 3074 3073 3072 3072 3072 3072 3071 3071 3070 3070 3071 3072 3073 3074 3076 3077 3080 3083 3085 3086 3088
3049 3050 3051 3052 3053 3054 3055 3055 3056 3057 3058 3059 3060 3062 3064 3065 3067 3068 3068 3068 3068 3069 3070 3071 3073 3075 3076 3077 3079 3080 3081 3082 3084 3084 3085 3086 3087 3088 3088 3088 3088 3088 3088 3089 3089 3089 3089 3088 3088 3087 3088 3088 3087 3086 3085 3085 3084 3083 3083 3081 3080 3078 3077 3077 3076 3075 3074 3073 3073 3073 3073 3072 3071 3070 3070 3071 3073 3074 3075 3076 3077 3080 3083 3085 3086 3088
3047 3048 3049 3051 3052 3053 3054 3055 3056 3056 3057 3058 3059 3061 3063 3064 3065 3065 3066 3068 3069 3069 3070 3071 3072 3074 3075 3077 3078 3079 3080 3082 3083 3083 3084 3085 3086 3086 3087 3087 3087 3087 3088 3088 3088 3088 3088 3088 3088 3087 3086 3086 3085 3085 3084 3084 3084 3083 3082 3081 3080 3079 3078 3077 3077 3076 3076 3075 3074 3074 3074 3074 3073 3072 3071 3072 3073 3075 3076 3077 3079 3082 3084 3086 3087 3088
3046 3047 3048 3049 3050 3051 3053 3054 3055 3055 3055 3057 3059 3060 3061 3063 3064 3065 3066 3068 3068 3069 3070 3071 3072 3074 3075 3076 3078 3079 3079 3080 3081 3082 3083 3084 3085 3085 3085 3086 3086 3086 3087 3087 3087 3087 3087 3087 3087 3086 3085 3085 3084 3084 3083 3083 3083 3082 3082 3081 3080 3079 3078 3078 3078 3077 3077 3076 3076 3075 3075 3075 3074 3073 3073 3073 3074 3075 3077 3078 3080 3082 3083 3085 3087 3087
3045 3045 3046 3047 3049 3050 3050 3051 3052 3053 3055 3056 3058 3059 3061 3062 3064 3065 3066 3067 3068 3069 3070 3071 3072 3074 3075 3076 3077 3078 3078 3079 3080 3080 3081 3082 3083 3083 3084 3084 3085 3085 3086 3086 3086 3085 3085 3085 3085 3085 3085 3084 3084 3083 3083 3082 3082 3081 3081 3080 3080 3079 3079 3078 3078 3077 3077 3077 3077 3076 3076 3076 3076 3075 3075 3075 3076 3077 3078 3078 3079 3081 3082 3084 3086 3087
3044 3044 3045 3046 3047 3048 3049 3050 3051 3053 3054 3056 3057 3059 3061 3063 3064 3065 3066 3066 3067 3068 3070 3071 3073 3073 3074 3075 3076 3077 3077 3078 3079 3079 3080 3081 3081 3081 3082 3082 3083 3083 3083 3083 3083 3083 3083 3083 3083 3083 3084 3084 3083 3083 3082 3082 3081 3081 3080 3080 3079 3079 3079 3078 3078 3078 3077 3077 3078 3077 3077 3076 3077 3077 3078 3078 3079 3079 3079 3080 3080 3081 3082 3084 3085 3086
3043 3044 3045 3046 3047 3048 3049 3050 3052 3053 3054 3056 3058 3059 3061 3062 3063 3064 3065 3066 3067 3068 3069 3071 3072 3073 3074 3074 3075 3076 3077 3077 3078 3078 3079 3080 3080 3080 3081 3081 3081 3081 3081 3081 3081 3081 3082 3082 3082 3082 3083 3083 3083 3083 3083 3082 3081 3081 3080 3080 3079 3079 3079 3079 3079 3078 3078 3078 3078 3078 3077 3077 3077 3077 3078 3078 3079 3079 3080 3080 3080 3081 3082 3083 3084 3085
3042 3043 3044 3045 3046 3047 3049 3051 3052 3053 3055 3057 3058 3060 3061 3062 3063 3064 3065 3066 3068 3068 3069 3070 3072 3073 3073 3074 3075 3076 3077 3077 3078 3079 3079 3080 3080 3080 3080 3080 3080 3080 3080 3080 3080 3080 3080 3081 3081 3081 3082 3082 3082 3082 3082 3082 3081 3080 3080 3080 3080 3079 3079 3079 3079 3079 3078 3078 3078 3078 3078 3077 3076 3077 3077 3078 3078 3079 3079 3079 3080 3081 3082 3082 3083 3084
3042 3043 3044 3044 3045 3047 3049 3051 3052 3054 3056 3058 3059 3060 3062 3063 3064 3065 3066 3067 3068 3069 3070 3070 3071 3072 3073 3074 3075 3076 3077 3078 3078 3079 3079 3080 3080 3080 3080 3080 3080 3080 3080 3080 3080 3080 3079 3080 3080 3080 3080 3081 3081 3081 3081 3081 3081 3080 3080 3079 3079 3079 3079 3079 3078 3078 3078 3078 3078 3078 3078 3077 3077 3076 3077 3077 3077 3078 3078 3079 3080 3080 3081 3081 3082 3082
3041 3042 3043 3044 3045 3047 3048 3050 3052 3054 3055 3058 3060 3061 3062 3063 3064 3065 3066 3067 3068 3069 3070 3070 3071 3072 3073 3074 3075 3076 3077 3078 3078 3079 3080 3080 3080 3080 3080 3080 3080 3080 3079 3079 3079 3079 3079 3079 3079 3079 3080 3080 3080 3080 3080 3080 3080 3079 3079 3078 3078 3078 3078 3078 3078 3078 3077 3077 3078 3078 3078 3078 3077 3076 3076 3077 3077 3077 3077 3078 3079 3080 3080 3081 3081 3082
3042 3042 3043 3044 3045 3046 3047 3050 3052 3054 3055 3057 3060 3061 3062 3064 3065 3066 3066 3067 3069 3070 3071 3071 3072 3073 3074 3075 3075 3076 3077 3078 3078 3079 3079 3079 3079 3079 3079 3079 3079 3079 3079 3079 3079 3079 3079 3078 3079 3079 3079 3079 3079 3079 3079 3079 3078 3078 3077 3077 3077 3077 3077 3077 3077 3077 3077 3077 3077 3077 3077 3077 3077 3076 3075 3075 3075 3075 3076 3077 3078 3079 3079 3080 3081 3081
3042 3043 3044 3045 3046 3047 3049 3051 3054 3056 3057 3058 3060 3061 3063 3065 3066 3067 3068 3068 3069 3070 3071 3072 3073 3074 3075 3075 3076 3077 3077 3078 3078 3078 3079 3079 3079 3079 3079 3079 3079 3079 3079 3079 3079 3079 3079 3078 3078 3078 3078 3078 3078 3078 3078 3078 3077 3077 3076 3076 3076 3076 3076 3076 3076 3076 3076 3076 3076 3075 3076 3076 3076 3076 3076 3075 3074 3074 3075 3076 3077 3078 3079 3079 3080 3080